Regional Weather Roundup
Issued by NWS Albany, NY

Home | Current Version | Previous Version | Graphics & Text | Print | Product List | Glossary On
Versions: 1 2 3 4 5 6 7 8 9 10 11 12 13 14 15 16 17 18 19 20 21 22 23 24 25 26 27 28 29 30 31 32 33 34 35 36 37 38 39 40 41 42 43 44 45 46 47 48 49 50
000
ASUS41 KALY 212010
RWRALY

NEW YORK STATE HOURLY WEATHER ROUNDUP
NATIONAL WEATHER SERVICE ALBANY NY
400 PM EDT MON JUL 21 2014

NOTE: "FAIR" INDICATES FEW OR NO CLOUDS BELOW 12,000 FEET WITH NO
SIGNIFICANT WEATHER AND/OR NO OBSTRUCTIONS TO VISIBILITY.

NYZ032-033-038>043-046>054-057>066-NYZ062>081-212100-
EAST


CITY           SKY/WX    TMP DP  RH WIND       PRES   REMARKS
ALBANY         MOSUNNY   83  59  44 SW7       30.13F
GLENS FALLS    CLOUDY    80  64  58 SE9       30.12F
POUGHKEEPSIE   SUNNY     83  59  44 VRB3      30.12F
NEWBURGH       MOSUNNY   82  64  54 W9        30.16F
MONTGOMERY     SUNNY     83  62  49 MISG      30.13F
WHITE PLAINS   MOSUNNY   81  63  54 SE7       30.15F
ISLIP          MOSUNNY   78  63  59 SE9       30.14F
NEW YORK CITY  MOSUNNY   83  58  42 VRB6      30.13F
CENTRAL PARK   SUNNY     85  57  38 NE5       30.17F
$$

NYZ005>009-017-018-044>046-055-056-212100-
CENTRAL


CITY           SKY/WX    TMP DP  RH WIND       PRES   REMARKS
FULTON         PTSUNNY   83  66  56 VRB5      30.11S
SYRACUSE       PTSUNNY   87  63  44 SW9       30.10F
ROME           MOSUNNY   82  64  54 SW5       30.12F
ELMIRA         MOSUNNY   85  65  51 S9        30.12F
BINGHAMTON     MOSUNNY   79  62  56 SW8       30.17F
MONTICELLO     SUNNY     81  63  54 SW7       30.19F
$$

NYZ026>034-041>043-212100-
NORTH


CITY           SKY/WX    TMP DP  RH WIND       PRES   REMARKS
WATERTOWN      SUNNY     81  64  56 W8        30.12R
FORT DRUM      NOT AVBL
MASSENA        MOSUNNY   82  66  58 SW8       30.10S
SARANAC LAKE   PTSUNNY   78  59  51 VRB6      30.15F
PLATTSBURGH    PTSUNNY   80  58  46 SE8       30.10S
$$

NYZ001>004-010>016-019>021-212100-
WEST


CITY           SKY/WX    TMP DP  RH WIND       PRES   REMARKS
NIAGARA FALLS  MOSUNNY   80  66  62 N6        30.11F
BUFFALO        MOSUNNY   83  57  41 W9        30.12F
DUNKIRK        SUNNY     77  66  68 W12       30.14S
JAMESTOWN      CLOUDY    77  64  65 N8        30.16F
WELLSVILLE     PTSUNNY   81  63  54 S9        30.19F
ROCHESTER      MOSUNNY   83  65  54 CALM      30.11F
PENN YAN       SUNNY     83  64  52 S8        30.13F
$$

             KEY
       WCI = WIND CHILL INDEX
       VSB = VISIBILITY
       HX  = HEAT INDEX
$$



USA.gov is the U.S. government's official web portal to all federal, state and local government web resources and services.